Location: Newark
(48.8833°N, 0.9236°W)
Time: 14:11:27
(UTC+00:00)

Vanguard 1 - Visible Passes

Search period start: 19 November 2019 00:00
Search period end: 29 November 2019 00:00
Orbit: 652 x 3831 km, 34.2° (Epoch: 18 November)

Date Brightness Start Highest point End Pass type
(mag) Time Alt. Az. Time Alt. Az. Time Alt. Az.
23 Nov 14.3 06:48:57 10° S 06:55:06 13° SSE 07:00:06 10° SE visible
26 Nov 14.3 05:29:03 10° S 05:36:05 13° SSE 05:41:57 10° ESE visible
27 Nov 14.1 05:46:11 10° S 05:56:59 18° SSE 06:05:08 10° ESE visible
28 Nov 13.9 06:04:46 10° SSW 06:17:54 23° SSE 06:27:09 10° ESE visible
